This demonstration page uses our WeatherBlox Daily Observations layout. Learn more.

Left ArrowRight Arrow

44.8408, -93.29828

Hourly Observations for February 25, 2022

Temp ( °F °C ) Dew Point ( °F °C ) Humidity (%) Winds ( mph kmh ) Pressure ( in mb ) Visibility ( mi km ) Precip ( " mm )
12:53 am 00:53 Cloudy with Light Snow 9 -12.8 4 -15.6 80 80 N 9 15 30.46 1032 6 10 0.00 0.00
1:28 am 01:28 Cloudy with Light Snow 9 -12.8 4 -15.6 80 80 N 7 11 30.51 1033 7 11 0.00 0.00
1:53 am 01:53 Cloudy with Light Snow 8 -13.3 3 -16.1 80 80 N 7 11 30.48 1032 7 11 0.00 0.00
2:20 am 02:20 Mostly Cloudy with Light Snow 8 -13.3 3 -16.1 80 80 N 7 11 30.52 1033 5 8 0.00 0.00
2:33 am 02:33 Cloudy 8 -13.3 3 -16.1 80 80 N 9 15 30.52 1033 7 11 0.00 0.00
2:53 am 02:53 Cloudy 7 -13.9 2 -16.7 80 80 N 6 9 30.48 1032 7 11 0.00 0.00
3:31 am 03:31 Partly Cloudy 6 -14.4 1 -17.2 79 79 N 7 11 30.52 1034 8 13 0.00 0.00
3:53 am 03:53 Clear 5 -15 1 -17.2 83 83 N 7 11 30.48 1032 10 16 0.00 0.00
4:53 am 04:53 Mostly Cloudy 6 -14.4 1 -17.2 79 79 N 7 11 30.50 1033 10 16 0.00 0.00
5:53 am 05:53 Clear 3 -16.1 -1 -18.3 83 83 NW 5 7 30.53 1034 8 13 0.00 0.00
6:53 am 06:53 Clear 3 -16.1 -2 -18.9 79 79 VRB 5 7 30.55 1035 10 16 0.00 0.00
7:53 am 07:53 Sunny 3 -16.1 -3 -19.4 76 76 NW 6 9 30.58 1036 10 16 0.00 0.00
8:53 am 08:53 Mostly Sunny 7 -13.9 -2 -18.9 66 66 NW 3 6 30.59 1036 10 16 0.00 0.00
9:53 am 09:53 Mostly Sunny 8 -13.3 -2 -18.9 63 63 Calm 30.60 1036 10 16 0.00 0.00
10:53 am 10:53 Mostly Sunny 15 -9.4 -1 -18.3 49 49 Calm 30.59 1036 10 16 0.00 0.00
11:53 am 11:53 Sunny 17 -8.3 0 -17.8 47 47 Calm 30.59 1036 10 16 0.00 0.00
12:53 pm 12:53 Sunny 17 -8.3 1 -17.2 49 49 W 9 15 30.58 1035 10 16 0.00 0.00
1:53 pm 13:53 Sunny 17 -8.3 2 -16.7 51 51 W 9 15 30.56 1035 10 16 0.00 0.00
2:53 pm 14:53 Mostly Sunny 16 -8.9 1 -17.2 51 51 SW 12 19 30.55 1035 10 16 0.00 0.00
3:53 pm 15:53 Mostly Sunny 16 -8.9 1 -17.2 51 51 WSW 12 19 30.56 1035 10 16 0.00 0.00
4:53 pm 16:53 Mostly Sunny 15 -9.4 1 -17.2 53 53 WSW 9 15 30.54 1034 10 16 0.00 0.00
5:53 pm 17:53 Mostly Sunny 13 -10.6 0 -17.8 56 56 W 8 13 30.53 1034 10 16 0.00 0.00
6:53 pm 18:53 Mostly Clear 11 -11.7 0 -17.8 61 61 WSW 8 13 30.53 1034 10 16 0.00 0.00
7:53 pm 19:53 Mostly Clear 9 -12.8 -1 -18.3 64 64 WSW 6 9 30.53 1034 10 16 0.00 0.00
8:53 pm 20:53 Clear 8 -13.3 -1 -18.3 66 66 SW 6 9 30.52 1034 10 16 0.00 0.00
9:53 pm 21:53 Clear 7 -13.9 -1 -18.3 70 70 SSW 6 9 30.51 1033 10 16 0.00 0.00
10:53 pm 22:53 Clear 7 -13.9 -1 -18.3 70 70 SW 6 9 30.49 1033 10 16 0.00 0.00
11:53 pm 23:53 Clear 6 -14.4 -1 -18.3 73 73 SSW 6 9 30.47 1032 10 16 0.00 0.00

Powered by AerisWeather